COSMOS 886 DEB

Satellite information

Favourite Embed

Satellite Type and Status

DEBRISIN ORBIT

Key statistics

Satellite COSMOS 886 DEB at a glance.

Uptime

17725

Days in orbit

Revolutions

≈ 12.4

Per day

Orbit

MEO

Medium Earth Orbit

Inclination

65.8

Latest

Satellite identification and parameters

Extended collection of information and parameters for COSMOS 886 DEB.

Object identification

Identified? True

Debris? True

Object name: COSMOS 886 DEB

International designator: 1976-126AW

Object number (NORAD): 9956

Object ID (CCSDS): 9956

Country: COMMONWEALTH OF INDEPENDENT STATES (CIS)

Current information (Y/N): Y

RCS size: SMALL

Orbital parameters

Period: 116.429 minutes

Inclination: 65.7939 deg

SMA: 7898.297 km

Apoapsis: 2243.235 km

Periapsis: 797.089 km

RAAN: 155.3762 deg

Eccentricy: 0.091548

Argument of periapsis: 74.3544 deg

Mean anomaly: 295.6462 deg

Mean motion: 12.36808853 rev/day

Mean motion (dot): 0.0000002 rev/day2

B* drag term: 0.00013553 1/REarth

Two-line elements (TLE)

Creation date: July 7, 2025, 6:34 p.m.

Reference frame: TEME

Reference center: EARTH

Epoch: July 6, 2025, 11:23 p.m. UTC

TLE line 0: 0 COSMOS 886 DEB

TLE line 1: 1 09956U 76126AW 25187.97487802 .00000020 00000-0 13553-3 0 9991

TLE line 2: 2 09956 65.7939 155.3762 0915480 74.3544 295.6462 12.36808853488472

Live tracking on map

Real-time ground track for satellite COSMOS 886 DEB.

In-orbit conjunctions

A list of the most updated potential collisions computed for object COSMOS 886 DEB.

Target Orbit TCA Probability of collision Miss distance Type
COSMOS 873 LEO 2024-11-13 05:34:24 0.0001110944 541.0 (m) PAYLOAD

Associated space launch

Second generation ASAT satellite

COSMOS 886 DEB was lifted into orbit during the mission ‘Tsiklon-2 | IS-A 4’, on board a Tsiklon-2 space rocket.

The launch took place on Dec. 27, 1976, 12:05 p.m. from 90.

For more information about the launch, click the button.

Launch to space Tsiklon-2 | IS-A 4
Tsiklon-2 | IS-A 4

Agency: N/A

Status: Launch Successful

Launch date: Dec. 27, 1976, 12:05 p.m. UTC

Rocket: Tsiklon-2

Launch pad: 90

Location: Baikonur Cosmodrome, Republic of Kazakhstan

...

Latest news about this satellite

There are no fresh news available about this satellite. Check back as we update our databases every day.


Newsletter sign-up

Weekly statistics, charts and insights to help you stay on top of the space industry.